Time,TemperatureF,DewpointF,PressureIn,WindDirection,WindDirectionDegrees,WindSpeedMPH,WindSpeedGustMPH,Humidity,HourlyPrecipIn,Conditions,Clouds,dailyrainin,SoftwareType,DateUTC
2013-02-02 00:02:00,38.6,30.0,30.26,ESE,119,3.0,4.0,71,0.00,,CLR,0.00,VWS V14.01,2013-02-02 07:02:00,
2013-02-02 00:07:00,38.4,30.2,30.26,ESE,119,2.0,3.0,72,0.00,,CLR,0.00,VWS V14.01,2013-02-02 07:07:00,
2013-02-02 00:12:00,38.4,30.2,30.26,ESE,119,3.0,4.0,72,0.00,,CLR,0.00,VWS V14.01,2013-02-02 07:12:00,
2013-02-02 00:17:00,38.5,30.3,30.25,ESE,119,3.0,4.0,72,0.00,,CLR,0.00,VWS V14.01,2013-02-02 07:17:00,
2013-02-02 00:22:00,38.5,29.9,30.25,ESE,119,2.0,2.0,71,0.00,,CLR,0.00,VWS V14.01,2013-02-02 07:22:00,
2013-02-02 00:27:00,38.5,29.9,30.25,ESE,119,2.0,3.0,71,0.00,,CLR,0.00,VWS V14.01,2013-02-02 07:27:00,
2013-02-02 00:32:00,38.4,30.2,30.25,ESE,119,2.0,3.0,72,0.00,,CLR,0.00,VWS V14.01,2013-02-02 07:32:00,
2013-02-02 00:37:00,38.4,30.2,30.25,ESE,119,3.0,3.0,72,0.00,,CLR,0.00,VWS V14.01,2013-02-02 07:37:00,
2013-02-02 00:42:00,38.4,30.2,30.25,ESE,119,1.0,3.0,72,0.00,,CLR,0.00,VWS V14.01,2013-02-02 07:42:00,
2013-02-02 00:47:00,38.3,30.1,30.25,ESE,119,1.0,3.0,72,0.00,,CLR,0.00,VWS V14.01,2013-02-02 07:47:00,
2013-02-02 00:52:00,38.1,29.9,30.25,ESE,119,1.0,2.0,72,0.00,,CLR,0.00,VWS V14.01,2013-02-02 07:52:00,
2013-02-02 00:57:00,38.0,29.8,30.25,ESE,119,0.0,3.0,72,0.00,,CLR,0.00,VWS V14.01,2013-02-02 07:57:00,
2013-02-02 01:06:00,37.6,29.7,30.24,ESE,119,2.0,3.0,73,0.00,,CLR,0.00,VWS V14.01,2013-02-02 08:06:00,
2013-02-02 01:11:00,37.4,29.5,30.24,ESE,119,0.0,3.0,73,0.00,,CLR,0.00,VWS V14.01,2013-02-02 08:11:00,
2013-02-02 01:16:00,37.2,29.7,30.24,ESE,119,3.0,3.0,74,0.00,,CLR,0.00,VWS V14.01,2013-02-02 08:16:00,
2013-02-02 01:21:00,37.1,29.6,30.24,ESE,119,2.0,3.0,74,0.00,,CLR,0.00,VWS V14.01,2013-02-02 08:21:00,
2013-02-02 01:26:00,36.9,29.7,30.24,ESE,119,2.0,3.0,75,0.00,,CLR,0.00,VWS V14.01,2013-02-02 08:26:00,
2013-02-02 01:31:00,36.6,29.8,30.24,ESE,119,2.0,3.0,76,0.00,,CLR,0.00,VWS V14.01,2013-02-02 08:31:00,
2013-02-02 01:36:00,36.4,29.9,30.24,ESE,119,2.0,3.0,77,0.00,,CLR,0.00,VWS V14.01,2013-02-02 08:36:00,
2013-02-02 01:41:00,36.2,29.7,30.24,ESE,119,2.0,3.0,77,0.00,,CLR,0.00,VWS V14.01,2013-02-02 08:41:00,
2013-02-02 01:46:00,35.9,29.4,30.24,ESE,119,2.0,3.0,77,0.00,,CLR,0.00,VWS V14.01,2013-02-02 08:46:00,
2013-02-02 01:51:00,35.7,29.5,30.23,ESE,119,3.0,3.0,78,0.00,,CLR,0.00,VWS V14.01,2013-02-02 08:51:00,
2013-02-02 01:56:00,35.6,29.4,30.24,ESE,119,2.0,2.0,78,0.00,,CLR,0.00,VWS V14.01,2013-02-02 08:56:00,
2013-02-02 02:01:00,35.6,29.4,30.24,ESE,119,0.0,3.0,78,0.00,,CLR,0.00,VWS V14.01,2013-02-02 09:01:00,
2013-02-02 02:06:00,35.8,29.3,30.24,ESE,119,0.0,2.0,77,0.00,,CLR,0.00,VWS V14.01,2013-02-02 09:06:00,
2013-02-02 02:11:00,35.9,29.4,30.24,ESE,119,2.0,2.0,77,0.00,,CLR,0.00,VWS V14.01,2013-02-02 09:11:00,
2013-02-02 02:16:00,36.0,29.8,30.24,ESE,119,0.0,3.0,78,0.00,,CLR,0.00,VWS V14.01,2013-02-02 09:16:00,
2013-02-02 02:21:00,36.0,29.8,30.24,ESE,119,2.0,3.0,78,0.00,,CLR,0.00,VWS V14.01,2013-02-02 09:21:00,
2013-02-02 02:26:00,36.0,29.5,30.24,ESE,119,1.0,2.0,77,0.00,,CLR,0.00,VWS V14.01,2013-02-02 09:26:00,
2013-02-02 02:31:00,36.0,29.5,30.24,ESE,119,2.0,3.0,77,0.00,,CLR,0.00,VWS V14.01,2013-02-02 09:31:00,
2013-02-02 02:36:00,36.2,29.7,30.24,ESE,119,2.0,4.0,77,0.00,,CLR,0.00,VWS V14.01,2013-02-02 09:36:00,
2013-02-02 02:41:00,36.2,29.7,30.23,ESE,119,0.0,0.0,77,0.00,,CLR,0.00,VWS V14.01,2013-02-02 09:41:00,
2013-02-02 02:46:00,36.3,29.8,30.23,ESE,119,1.0,1.0,77,0.00,,CLR,0.00,VWS V14.01,2013-02-02 09:46:00,
2013-02-02 02:51:00,36.3,29.5,30.23,ESE,119,0.0,1.0,76,0.00,,CLR,0.00,VWS V14.01,2013-02-02 09:51:00,
2013-02-02 02:56:00,36.3,29.8,30.23,ESE,119,0.0,0.0,77,0.00,,CLR,0.00,VWS V14.01,2013-02-02 09:56:00,
2013-02-02 03:01:00,36.2,29.7,30.24,ESE,119,1.0,2.0,77,0.00,,CLR,0.00,VWS V14.01,2013-02-02 10:01:00,
2013-02-02 03:06:00,36.0,29.5,30.24,ESE,119,1.0,4.0,77,0.00,,CLR,0.00,VWS V14.01,2013-02-02 10:06:00,
2013-02-02 03:11:00,35.9,29.4,30.24,ESE,119,1.0,3.0,77,0.00,,CLR,0.00,VWS V14.01,2013-02-02 10:11:00,
2013-02-02 03:16:00,35.8,29.3,30.24,ESE,119,3.0,4.0,77,0.00,,CLR,0.00,VWS V14.01,2013-02-02 10:16:00,
2013-02-02 03:21:00,35.6,29.4,30.24,ESE,119,1.0,3.0,78,0.00,,CLR,0.00,VWS V14.01,2013-02-02 10:21:00,
2013-02-02 03:26:00,35.4,29.2,30.24,ESE,119,0.0,2.0,78,0.00,,CLR,0.00,VWS V14.01,2013-02-02 10:26:00,
2013-02-02 03:31:00,35.2,29.0,30.24,ESE,119,0.0,0.0,78,0.00,,CLR,0.00,VWS V14.01,2013-02-02 10:31:00,
2013-02-02 03:36:00,35.0,28.9,30.23,ESE,119,0.0,0.0,78,0.00,,CLR,0.00,VWS V14.01,2013-02-02 10:36:00,
2013-02-02 03:41:00,34.8,28.6,30.24,ESE,119,0.0,1.0,78,0.00,,CLR,0.00,VWS V14.01,2013-02-02 10:41:00,
2013-02-02 03:46:00,34.7,28.5,30.23,ESE,119,1.0,1.0,78,0.00,,CLR,0.00,VWS V14.01,2013-02-02 10:46:00,
2013-02-02 03:51:00,34.6,28.5,30.23,ESE,119,0.0,0.0,78,0.00,,CLR,0.00,VWS V14.01,2013-02-02 10:51:00,
2013-02-02 03:56:00,34.4,28.6,30.23,ESE,119,0.0,0.0,79,0.00,,CLR,0.00,VWS V14.01,2013-02-02 10:56:00,
2013-02-02 04:01:00,34.3,28.8,30.24,ESE,119,3.0,3.0,80,0.00,,CLR,0.00,VWS V14.01,2013-02-02 11:01:00,
2013-02-02 04:06:00,34.2,28.7,30.24,ESE,119,1.0,2.0,80,0.00,,CLR,0.00,VWS V14.01,2013-02-02 11:06:00,
2013-02-02 04:11:00,34.2,28.7,30.24,ESE,119,0.0,0.0,80,0.00,,CLR,0.00,VWS V14.01,2013-02-02 11:11:00,
2013-02-02 04:16:00,34.1,28.6,30.24,ESE,119,0.0,0.0,80,0.00,,CLR,0.00,VWS V14.01,2013-02-02 11:16:00,
2013-02-02 04:21:00,34.0,28.5,30.24,ESE,119,0.0,0.0,80,0.00,,CLR,0.00,VWS V14.01,2013-02-02 11:21:00,
2013-02-02 04:26:00,34.0,28.5,30.24,ESE,119,0.0,0.0,80,0.00,,CLR,0.00,VWS V14.01,2013-02-02 11:26:00,
2013-02-02 04:31:00,33.9,28.4,30.24,ESE,119,0.0,0.0,80,0.00,,CLR,0.00,VWS V14.01,2013-02-02 11:31:00,
2013-02-02 04:36:00,33.9,28.4,30.24,ESE,119,0.0,1.0,80,0.00,,CLR,0.00,VWS V14.01,2013-02-02 11:36:00,
2013-02-02 04:41:00,33.9,28.4,30.24,ESE,119,0.0,1.0,80,0.00,,CLR,0.00,VWS V14.01,2013-02-02 11:41:00,
2013-02-02 04:46:00,33.9,28.4,30.24,ESE,119,0.0,1.0,80,0.00,,CLR,0.00,VWS V14.01,2013-02-02 11:46:00,
2013-02-02 04:51:00,33.8,28.3,30.24,ESE,119,0.0,0.0,80,0.00,,CLR,0.00,VWS V14.01,2013-02-02 11:51:00,
2013-02-02 04:56:00,33.8,28.3,30.24,ESE,119,0.0,0.0,80,0.00,,CLR,0.00,VWS V14.01,2013-02-02 11:56:00,
2013-02-02 05:01:00,33.8,28.6,30.24,ESE,119,0.0,0.0,81,0.00,,CLR,0.00,VWS V14.01,2013-02-02 12:01:00,
2013-02-02 05:06:00,33.7,28.2,30.24,ESE,119,0.0,0.0,80,0.00,,CLR,0.00,VWS V14.01,2013-02-02 12:06:00,
2013-02-02 05:11:00,33.7,28.8,30.24,ESE,119,0.0,2.0,82,0.00,,CLR,0.00,VWS V14.01,2013-02-02 12:11:00,
2013-02-02 05:16:00,33.6,28.4,30.24,ESE,119,0.0,0.0,81,0.00,,CLR,0.00,VWS V14.01,2013-02-02 12:16:00,
2013-02-02 05:21:00,33.6,28.4,30.24,ESE,119,0.0,0.0,81,0.00,,CLR,0.00,VWS V14.01,2013-02-02 12:21:00,
2013-02-02 05:26:00,33.6,28.7,30.25,ESE,119,0.0,0.0,82,0.00,,CLR,0.00,VWS V14.01,2013-02-02 12:26:00,
2013-02-02 05:31:00,33.5,28.3,30.25,ESE,119,0.0,0.0,81,0.00,,CLR,0.00,VWS V14.01,2013-02-02 12:31:00,
2013-02-02 05:36:00,33.5,28.3,30.25,ESE,119,0.0,0.0,81,0.00,,CLR,0.00,VWS V14.01,2013-02-02 12:36:00,
2013-02-02 05:41:00,33.5,28.6,30.25,ESE,119,0.0,1.0,82,0.00,,CLR,0.00,VWS V14.01,2013-02-02 12:41:00,
2013-02-02 05:46:00,33.5,28.6,30.26,ESE,119,0.0,0.0,82,0.00,,CLR,0.00,VWS V14.01,2013-02-02 12:46:00,
2013-02-02 05:51:00,33.4,28.5,30.26,ESE,119,2.0,3.0,82,0.00,,CLR,0.00,VWS V14.01,2013-02-02 12:51:00,
2013-02-02 05:56:00,33.4,28.8,30.26,ESE,119,2.0,2.0,83,0.00,,CLR,0.00,VWS V14.01,2013-02-02 12:56:00,
2013-02-02 06:01:00,33.3,28.7,30.26,ESE,119,2.0,3.0,83,0.00,,CLR,0.00,VWS V14.01,2013-02-02 13:01:00,
2013-02-02 06:06:00,33.3,28.7,30.26,ESE,119,2.0,2.0,83,0.00,,CLR,0.00,VWS V14.01,2013-02-02 13:06:00,
2013-02-02 06:11:00,33.2,28.6,30.27,ESE,119,3.0,3.0,83,0.00,,CLR,0.00,VWS V14.01,2013-02-02 13:11:00,
2013-02-02 06:16:00,33.0,28.7,30.27,ESE,119,2.0,3.0,84,0.00,,CLR,0.00,VWS V14.01,2013-02-02 13:16:00,
2013-02-02 06:21:00,32.9,28.6,30.27,ESE,119,2.0,2.0,84,0.00,,CLR,0.00,VWS V14.01,2013-02-02 13:21:00,
2013-02-02 06:26:00,32.9,28.6,30.27,ESE,119,3.0,4.0,84,0.00,,CLR,0.00,VWS V14.01,2013-02-02 13:26:00,
2013-02-02 06:31:00,32.9,28.6,30.27,ESE,119,0.0,1.0,84,0.00,,CLR,0.00,VWS V14.01,2013-02-02 13:31:00,
2013-02-02 06:36:00,33.0,28.7,30.28,ESE,119,3.0,4.0,84,0.00,,CLR,0.00,VWS V14.01,2013-02-02 13:36:00,
2013-02-02 06:41:00,33.2,28.9,30.28,ESE,119,0.0,3.0,84,0.00,,CLR,0.00,VWS V14.01,2013-02-02 13:41:00,
2013-02-02 06:46:00,33.5,28.9,30.28,ESE,119,1.0,2.0,83,0.00,,CLR,0.00,VWS V14.01,2013-02-02 13:46:00,
2013-02-02 06:51:00,33.9,29.3,30.28,ESE,119,0.0,3.0,83,0.00,,CLR,0.00,VWS V14.01,2013-02-02 13:51:00,
2013-02-02 06:56:00,34.3,29.7,30.29,ESE,119,3.0,4.0,83,0.00,,CLR,0.00,VWS V14.01,2013-02-02 13:56:00,
2013-02-02 07:01:00,34.6,30.0,30.29,East,99,2.0,6.0,83,0.00,,CLR,0.00,VWS V14.01,2013-02-02 14:01:00,
2013-02-02 07:06:00,34.9,30.0,30.29,East,96,2.0,5.0,82,0.00,,CLR,0.00,VWS V14.01,2013-02-02 14:06:00,
2013-02-02 07:11:00,35.2,30.3,30.29,East,88,5.0,6.0,82,0.00,,CLR,0.00,VWS V14.01,2013-02-02 14:11:00,
2013-02-02 07:16:00,35.7,31.0,30.29,ENE,65,4.0,5.0,83,0.00,,CLR,0.00,VWS V14.01,2013-02-02 14:16:00,
2013-02-02 07:21:00,36.1,31.1,30.30,NE,41,5.0,7.0,82,0.00,,CLR,0.00,VWS V14.01,2013-02-02 14:21:00,
2013-02-02 07:26:00,36.8,32.1,30.30,NNE,22,5.0,7.0,83,0.00,,CLR,0.00,VWS V14.01,2013-02-02 14:26:00,
2013-02-02 07:31:00,37.2,31.9,30.30,NNE,24,4.0,7.0,81,0.00,,CLR,0.00,VWS V14.01,2013-02-02 14:31:00,
2013-02-02 07:36:00,37.6,32.3,30.31,NNE,27,6.0,7.0,81,0.00,,CLR,0.00,VWS V14.01,2013-02-02 14:36:00,
2013-02-02 07:41:00,37.9,32.6,30.31,NE,34,5.0,6.0,81,0.00,,CLR,0.00,VWS V14.01,2013-02-02 14:41:00,
2013-02-02 07:46:00,38.4,32.8,30.31,NNE,28,4.0,6.0,80,0.00,,CLR,0.00,VWS V14.01,2013-02-02 14:46:00,
2013-02-02 07:51:00,39.0,33.0,30.31,NNE,27,4.0,6.0,79,0.00,,CLR,0.00,VWS V14.01,2013-02-02 14:51:00,
2013-02-02 07:56:00,39.5,33.5,30.31,NNE,29,7.0,8.0,79,0.00,,CLR,0.00,VWS V14.01,2013-02-02 14:56:00,
2013-02-02 08:01:00,39.7,33.7,30.31,NNE,28,7.0,7.0,79,0.00,,CLR,0.00,VWS V14.01,2013-02-02 15:01:00,
2013-02-02 08:06:00,39.9,33.6,30.32,NNE,26,6.0,7.0,78,0.00,,CLR,0.00,VWS V14.01,2013-02-02 15:06:00,
2013-02-02 08:11:00,40.7,34.7,30.32,NNE,26,4.0,5.0,79,0.00,,CLR,0.00,VWS V14.01,2013-02-02 15:11:00,
2013-02-02 08:16:00,41.2,34.9,30.32,NE,34,2.0,4.0,78,0.00,,CLR,0.00,VWS V14.01,2013-02-02 15:16:00,
2013-02-02 08:21:00,41.6,34.9,30.32,NNE,22,5.0,7.0,77,0.00,,CLR,0.00,VWS V14.01,2013-02-02 15:21:00,
2013-02-02 08:26:00,42.4,35.4,30.32,NNE,16,4.0,6.0,76,0.00,,CLR,0.00,VWS V14.01,2013-02-02 15:26:00,
2013-02-02 08:31:00,43.1,35.7,30.33,NNE,16,3.0,5.0,75,0.00,,CLR,0.00,VWS V14.01,2013-02-02 15:31:00,
2013-02-02 08:36:00,43.5,35.8,30.33,NNE,16,3.0,3.0,74,0.00,,CLR,0.00,VWS V14.01,2013-02-02 15:36:00,
2013-02-02 08:41:00,44.3,36.5,30.33,NNE,16,5.0,5.0,74,0.00,,CLR,0.00,VWS V14.01,2013-02-02 15:41:00,
2013-02-02 08:46:00,45.0,36.9,30.33,NNE,17,3.0,5.0,73,0.00,,CLR,0.00,VWS V14.01,2013-02-02 15:46:00,
2013-02-02 08:51:00,45.4,37.3,30.33,NNE,17,2.0,4.0,73,0.00,,CLR,0.00,VWS V14.01,2013-02-02 15:51:00,
2013-02-02 08:56:00,45.9,37.4,30.33,NNE,17,0.0,2.0,72,0.00,,CLR,0.00,VWS V14.01,2013-02-02 15:56:00,
2013-02-02 09:01:00,46.5,38.0,30.33,NNE,17,0.0,0.0,72,0.00,,CLR,0.00,VWS V14.01,2013-02-02 16:01:00,
2013-02-02 09:06:00,47.2,38.3,30.32,NNE,17,0.0,0.0,71,0.00,,CLR,0.00,VWS V14.01,2013-02-02 16:06:00,
2013-02-02 09:11:00,47.9,39.3,30.33,NNE,17,1.0,3.0,72,0.00,,CLR,0.00,VWS V14.01,2013-02-02 16:11:00,
2013-02-02 09:16:00,48.5,39.9,30.33,WNW,294,3.0,4.0,72,0.00,,CLR,0.00,VWS V14.01,2013-02-02 16:16:00,
2013-02-02 09:21:00,49.1,40.1,30.33,NW,325,4.0,5.0,71,0.00,,CLR,0.00,VWS V14.01,2013-02-02 16:21:00,
2013-02-02 09:26:00,49.3,40.7,30.33,NW,307,4.0,5.0,72,0.00,,CLR,0.00,VWS V14.01,2013-02-02 16:26:00,
2013-02-02 09:31:00,50.3,41.6,30.33,NW,319,1.0,6.0,72,0.00,,CLR,0.00,VWS V14.01,2013-02-02 16:31:00,
2013-02-02 09:36:00,50.9,41.8,30.33,NW,317,4.0,5.0,71,0.00,,CLR,0.00,VWS V14.01,2013-02-02 16:36:00,
2013-02-02 09:41:00,51.9,42.8,30.33,WNW,291,5.0,7.0,71,0.00,,CLR,0.00,VWS V14.01,2013-02-02 16:41:00,
2013-02-02 09:46:00,52.6,43.1,30.33,West,275,7.0,7.0,70,0.00,,CLR,0.00,VWS V14.01,2013-02-02 16:46:00,
2013-02-02 09:51:00,53.3,43.8,30.33,WNW,298,6.0,8.0,70,0.00,,CLR,0.00,VWS V14.01,2013-02-02 16:51:00,
2013-02-02 09:56:00,54.0,44.1,30.33,West,279,5.0,8.0,69,0.00,,CLR,0.00,VWS V14.01,2013-02-02 16:56:00,
2013-02-02 10:01:00,54.4,44.5,30.33,WNW,290,11.0,12.0,69,0.00,,CLR,0.00,VWS V14.01,2013-02-02 17:01:00,
2013-02-02 10:06:00,54.8,44.8,30.33,West,280,6.0,11.0,69,0.00,,CLR,0.00,VWS V14.01,2013-02-02 17:06:00,
2013-02-02 10:11:00,55.5,44.7,30.33,NW,323,5.0,11.0,67,0.00,,CLR,0.00,VWS V14.01,2013-02-02 17:11:00,
2013-02-02 10:16:00,56.2,45.4,30.33,West,267,7.0,10.0,67,0.00,,CLR,0.00,VWS V14.01,2013-02-02 17:16:00,
2013-02-02 10:21:00,56.9,45.3,30.33,West,265,5.0,10.0,65,0.00,,CLR,0.00,VWS V14.01,2013-02-02 17:21:00,
2013-02-02 10:26:00,57.4,45.8,30.32,WNW,302,3.0,6.0,65,0.00,,CLR,0.00,VWS V14.01,2013-02-02 17:26:00,
2013-02-02 10:31:00,57.7,45.6,30.32,WNW,289,6.0,7.0,64,0.00,,CLR,0.00,VWS V14.01,2013-02-02 17:31:00,
2013-02-02 10:36:00,57.8,45.3,30.32,WNW,298,10.0,12.0,63,0.00,,CLR,0.00,VWS V14.01,2013-02-02 17:36:00,
2013-02-02 10:41:00,57.9,45.4,30.32,West,266,6.0,9.0,63,0.00,,CLR,0.00,VWS V14.01,2013-02-02 17:41:00,
2013-02-02 10:46:00,58.3,44.9,30.32,WNW,296,9.0,11.0,61,0.00,,CLR,0.00,VWS V14.01,2013-02-02 17:46:00,
2013-02-02 10:51:00,58.4,44.6,30.32,WNW,292,12.0,14.0,60,0.00,,CLR,0.00,VWS V14.01,2013-02-02 17:51:00,
2013-02-02 10:56:00,58.5,44.2,30.32,NNW,329,9.0,10.0,59,0.00,,CLR,0.00,VWS V14.01,2013-02-02 17:56:00,
2013-02-02 11:01:00,58.9,44.6,30.31,NW,311,7.0,8.0,59,0.00,,CLR,0.00,VWS V14.01,2013-02-02 18:01:00,
2013-02-02 11:06:00,59.0,44.3,30.31,NW,313,10.0,11.0,58,0.00,,CLR,0.00,VWS V14.01,2013-02-02 18:06:00,
2013-02-02 11:11:00,59.2,44.0,30.31,WNW,301,9.0,10.0,57,0.00,,CLR,0.00,VWS V14.01,2013-02-02 18:11:00,
2013-02-02 11:16:00,59.4,43.2,30.31,NNW,340,3.0,7.0,55,0.00,,CLR,0.00,VWS V14.01,2013-02-02 18:16:00,
2013-02-02 11:21:00,59.8,44.1,30.31,NNW,336,5.0,10.0,56,0.00,,CLR,0.00,VWS V14.01,2013-02-02 18:21:00,
2013-02-02 11:26:00,59.9,43.7,30.30,North,5,6.0,9.0,55,0.00,,CLR,0.00,VWS V14.01,2013-02-02 18:26:00,
2013-02-02 11:31:00,60.1,42.9,30.30,NNW,340,8.0,9.0,53,0.00,,CLR,0.00,VWS V14.01,2013-02-02 18:31:00,
2013-02-02 11:36:00,60.2,42.5,30.30,North,5,7.0,7.0,52,0.00,,CLR,0.00,VWS V14.01,2013-02-02 18:36:00,
2013-02-02 11:41:00,60.4,43.2,30.30,WNW,303,2.0,6.0,53,0.00,,CLR,0.00,VWS V14.01,2013-02-02 18:41:00,
2013-02-02 11:46:00,60.7,43.5,30.29,NNW,330,4.0,6.0,53,0.00,,CLR,0.00,VWS V14.01,2013-02-02 18:46:00,
2013-02-02 11:51:00,61.1,41.8,30.29,NW,325,7.0,10.0,49,0.00,,CLR,0.00,VWS V14.01,2013-02-02 18:51:00,
2013-02-02 11:56:00,61.3,42.0,30.29,NNW,327,5.0,8.0,49,0.00,,CLR,0.00,VWS V14.01,2013-02-02 18:56:00,
2013-02-02 12:01:00,61.3,42.0,30.29,NNE,16,3.0,5.0,49,0.00,,CLR,0.00,VWS V14.01,2013-02-02 19:01:00,
2013-02-02 12:06:00,61.5,41.7,30.29,NNE,21,2.0,4.0,48,0.00,,CLR,0.00,VWS V14.01,2013-02-02 19:06:00,
2013-02-02 12:11:00,62.1,41.1,30.28,NNW,337,3.0,6.0,46,0.00,,CLR,0.00,VWS V14.01,2013-02-02 19:11:00,
2013-02-02 12:16:00,62.3,41.3,30.28,NNW,336,5.0,8.0,46,0.00,,CLR,0.00,VWS V14.01,2013-02-02 19:16:00,
2013-02-02 12:21:00,62.9,40.7,30.28,NNE,15,9.0,12.0,44,0.00,,CLR,0.00,VWS V14.01,2013-02-02 19:21:00,
2013-02-02 12:26:00,63.1,40.3,30.28,North,360,3.0,3.0,43,0.00,,CLR,0.00,VWS V14.01,2013-02-02 19:26:00,
2013-02-02 12:31:00,63.3,39.2,30.28,North,351,4.0,10.0,41,0.00,,CLR,0.00,VWS V14.01,2013-02-02 19:31:00,
2013-02-02 12:36:00,63.2,38.5,30.27,North,355,2.0,4.0,40,0.00,,CLR,0.00,VWS V14.01,2013-02-02 19:36:00,
2013-02-02 12:41:00,63.6,39.5,30.27,NNE,19,7.0,7.0,41,0.00,,CLR,0.00,VWS V14.01,2013-02-02 19:41:00,
2013-02-02 12:46:00,64.1,38.7,30.27,North,360,3.0,7.0,39,0.00,,CLR,0.00,VWS V14.01,2013-02-02 19:46:00,
2013-02-02 12:51:00,64.2,40.0,30.27,NNW,348,4.0,6.0,41,0.00,,CLR,0.00,VWS V14.01,2013-02-02 19:51:00,
2013-02-02 12:56:00,64.5,40.3,30.27,North,360,7.0,7.0,41,0.00,,CLR,0.00,VWS V14.01,2013-02-02 19:56:00,
2013-02-02 13:01:00,64.6,38.4,30.27,NE,43,8.0,8.0,38,0.00,,CLR,0.00,VWS V14.01,2013-02-02 20:01:00,
2013-02-02 13:06:00,64.1,39.3,30.27,NNW,335,9.0,9.0,40,0.00,,CLR,0.00,VWS V14.01,2013-02-02 20:06:00,
2013-02-02 13:11:00,64.2,38.8,30.27,North,5,6.0,10.0,39,0.00,,CLR,0.00,VWS V14.01,2013-02-02 20:11:00,
2013-02-02 13:16:00,64.1,39.3,30.27,North,5,8.0,10.0,40,0.00,,CLR,0.00,VWS V14.01,2013-02-02 20:16:00,
2013-02-02 13:21:00,64.2,38.8,30.27,NNW,348,3.0,7.0,39,0.00,,CLR,0.00,VWS V14.01,2013-02-02 20:21:00,
2013-02-02 13:26:00,64.4,39.6,30.27,North,5,9.0,10.0,40,0.00,,CLR,0.00,VWS V14.01,2013-02-02 20:26:00,
2013-02-02 13:31:00,64.6,39.8,30.27,North,355,6.0,11.0,40,0.00,,CLR,0.00,VWS V14.01,2013-02-02 20:31:00,
2013-02-02 13:36:00,64.8,39.3,30.27,North,360,7.0,7.0,39,0.00,,CLR,0.00,VWS V14.01,2013-02-02 20:36:00,
2013-02-02 13:41:00,64.9,39.4,30.27,North,355,7.0,7.0,39,0.00,,CLR,0.00,VWS V14.01,2013-02-02 20:41:00,
2013-02-02 13:46:00,65.4,39.8,30.27,North,5,7.0,13.0,39,0.00,,CLR,0.00,VWS V14.01,2013-02-02 20:46:00,
2013-02-02 13:51:00,65.2,39.0,30.27,NNW,347,5.0,8.0,38,0.00,,CLR,0.00,VWS V14.01,2013-02-02 20:51:00,
2013-02-02 13:56:00,65.3,39.1,30.27,North,360,6.0,9.0,38,0.00,,CLR,0.00,VWS V14.01,2013-02-02 20:56:00,
2013-02-02 14:01:00,65.3,39.1,30.27,NW,325,10.0,12.0,38,0.00,,CLR,0.00,VWS V14.01,2013-02-02 21:01:00,
2013-02-02 14:06:00,65.0,38.1,30.27,North,355,7.0,13.0,37,0.00,,CLR,0.00,VWS V14.01,2013-02-02 21:06:00,
2013-02-02 14:11:00,65.0,39.5,30.27,North,5,8.0,10.0,39,0.00,,CLR,0.00,VWS V14.01,2013-02-02 21:11:00,
2013-02-02 14:16:00,65.0,38.8,30.27,North,355,9.0,12.0,38,0.00,,CLR,0.00,VWS V14.01,2013-02-02 21:16:00,
2013-02-02 14:21:00,65.2,39.0,30.27,NW,326,2.0,4.0,38,0.00,,CLR,0.00,VWS V14.01,2013-02-02 21:21:00,
2013-02-02 14:26:00,65.3,39.1,30.27,WNW,300,5.0,7.0,38,0.00,,CLR,0.00,VWS V14.01,2013-02-02 21:26:00,
2013-02-02 14:31:00,65.6,39.3,30.27,North,351,5.0,6.0,38,0.00,,CLR,0.00,VWS V14.01,2013-02-02 21:31:00,
2013-02-02 14:36:00,65.5,38.6,30.27,NW,317,3.0,4.0,37,0.00,,CLR,0.00,VWS V14.01,2013-02-02 21:36:00,
2013-02-02 14:41:00,65.4,37.8,30.26,WNW,294,6.0,7.0,36,0.00,,CLR,0.00,VWS V14.01,2013-02-02 21:41:00,
2013-02-02 14:46:00,65.0,38.1,30.27,NW,310,6.0,8.0,37,0.00,,CLR,0.00,VWS V14.01,2013-02-02 21:46:00,
2013-02-02 14:51:00,65.0,37.4,30.27,WNW,298,6.0,6.0,36,0.00,,CLR,0.00,VWS V14.01,2013-02-02 21:51:00,
2013-02-02 14:56:00,65.0,37.4,30.27,NNW,329,6.0,7.0,36,0.00,,CLR,0.00,VWS V14.01,2013-02-02 21:56:00,
2013-02-02 15:01:00,65.5,39.2,30.27,West,277,5.0,6.0,38,0.00,,CLR,0.00,VWS V14.01,2013-02-02 22:01:00,
2013-02-02 15:06:00,65.8,38.8,30.27,NNW,336,4.0,5.0,37,0.00,,CLR,0.00,VWS V14.01,2013-02-02 22:06:00,
2013-02-02 15:11:00,65.9,38.9,30.27,North,355,7.0,8.0,37,0.00,,CLR,0.00,VWS V14.01,2013-02-02 22:11:00,
2013-02-02 15:16:00,65.9,38.2,30.26,NNW,333,4.0,8.0,36,0.00,,CLR,0.00,VWS V14.01,2013-02-02 22:16:00,
2013-02-02 15:21:00,65.9,38.9,30.27,NNW,346,4.0,6.0,37,0.00,,CLR,0.00,VWS V14.01,2013-02-02 22:21:00,
2013-02-02 15:26:00,65.9,38.2,30.26,NW,317,4.0,6.0,36,0.00,,CLR,0.00,VWS V14.01,2013-02-02 22:26:00,
2013-02-02 15:31:00,66.0,39.0,30.27,NNW,336,5.0,6.0,37,0.00,,CLR,0.00,VWS V14.01,2013-02-02 22:31:00,
2013-02-02 15:36:00,65.9,36.8,30.27,NW,319,12.0,13.0,34,0.00,,CLR,0.00,VWS V14.01,2013-02-02 22:36:00,
2013-02-02 15:41:00,65.6,35.8,30.27,NW,312,9.0,14.0,33,0.00,,CLR,0.00,VWS V14.01,2013-02-02 22:41:00,
2013-02-02 15:46:00,65.5,37.2,30.27,NNW,331,11.0,11.0,35,0.00,,CLR,0.00,VWS V14.01,2013-02-02 22:46:00,
2013-02-02 15:51:00,65.4,37.1,30.27,NNW,340,6.0,8.0,35,0.00,,CLR,0.00,VWS V14.01,2013-02-02 22:51:00,
2013-02-02 15:56:00,65.2,36.2,30.27,NW,315,10.0,10.0,34,0.00,,CLR,0.00,VWS V14.01,2013-02-02 22:56:00,
2013-02-02 16:01:00,64.9,35.9,30.27,NW,321,7.0,9.0,34,0.00,,CLR,0.00,VWS V14.01,2013-02-02 23:01:00,
2013-02-02 16:06:00,64.6,36.3,30.27,NW,317,6.0,10.0,35,0.00,,CLR,0.00,VWS V14.01,2013-02-02 23:06:00,
2013-02-02 16:11:00,64.3,36.8,30.27,NNW,346,9.0,12.0,36,0.00,,CLR,0.00,VWS V14.01,2013-02-02 23:11:00,
2013-02-02 16:16:00,63.8,35.7,30.28,NNW,342,8.0,10.0,35,0.00,,CLR,0.00,VWS V14.01,2013-02-02 23:16:00,
2013-02-02 16:21:00,63.3,35.9,30.28,NNW,335,10.0,10.0,36,0.00,,CLR,0.00,VWS V14.01,2013-02-02 23:21:00,
2013-02-02 16:26:00,62.9,36.2,30.28,NNW,340,4.0,7.0,37,0.00,,CLR,0.00,VWS V14.01,2013-02-02 23:26:00,
2013-02-02 16:31:00,62.5,35.9,30.28,NNW,329,4.0,7.0,37,0.00,,CLR,0.00,VWS V14.01,2013-02-02 23:31:00,
2013-02-02 16:36:00,62.0,36.1,30.28,NNW,330,4.0,5.0,38,0.00,,CLR,0.00,VWS V14.01,2013-02-02 23:36:00,
2013-02-02 16:41:00,61.5,36.3,30.28,NNW,330,3.0,4.0,39,0.00,,CLR,0.00,VWS V14.01,2013-02-02 23:41:00,
2013-02-02 16:46:00,60.8,35.7,30.28,NNW,329,3.0,5.0,39,0.00,,CLR,0.00,VWS V14.01,2013-02-02 23:46:00,
2013-02-02 16:51:00,60.2,35.8,30.28,NNW,328,4.0,6.0,40,0.00,,CLR,0.00,VWS V14.01,2013-02-02 23:51:00,
2013-02-02 16:56:00,59.6,35.9,30.29,NNW,333,6.0,6.0,41,0.00,,CLR,0.00,VWS V14.01,2013-02-02 23:56:00,
2013-02-02 17:01:00,59.0,35.3,30.29,NNW,333,2.0,5.0,41,0.00,,CLR,0.00,VWS V14.01,2013-02-03 00:01:00,
2013-02-02 17:06:00,58.5,34.9,30.29,NNW,333,2.0,4.0,41,0.00,,CLR,0.00,VWS V14.01,2013-02-03 00:06:00,
2013-02-02 17:11:00,58.0,35.1,30.29,NNW,333,3.0,3.0,42,0.00,,CLR,0.00,VWS V14.01,2013-02-03 00:11:00,
2013-02-02 17:16:00,57.6,34.7,30.29,NNW,333,2.0,3.0,42,0.00,,CLR,0.00,VWS V14.01,2013-02-03 00:16:00,
2013-02-02 17:21:00,57.1,34.2,30.29,NNW,333,2.0,3.0,42,0.00,,CLR,0.00,VWS V14.01,2013-02-03 00:21:00,
2013-02-02 17:26:00,56.7,34.5,30.29,NNW,333,2.0,2.0,43,0.00,,CLR,0.00,VWS V14.01,2013-02-03 00:26:00,
2013-02-02 17:31:00,56.2,34.0,30.29,NNW,333,1.0,1.0,43,0.00,,CLR,0.00,VWS V14.01,2013-02-03 00:31:00,
2013-02-02 17:36:00,55.8,33.7,30.29,NNW,333,0.0,0.0,43,0.00,,CLR,0.00,VWS V14.01,2013-02-03 00:36:00,
2013-02-02 17:41:00,55.2,34.2,30.29,NNW,333,0.0,0.0,45,0.00,,CLR,0.00,VWS V14.01,2013-02-03 00:41:00,
2013-02-02 17:46:00,54.5,34.2,30.30,NNW,333,0.0,0.0,46,0.00,,CLR,0.00,VWS V14.01,2013-02-03 00:46:00,
2013-02-02 17:51:00,53.6,34.4,30.30,NNW,333,0.0,0.0,48,0.00,,CLR,0.00,VWS V14.01,2013-02-03 00:51:00,
2013-02-02 17:56:00,52.6,35.0,30.30,NNW,333,0.0,0.0,51,0.00,,CLR,0.00,VWS V14.01,2013-02-03 00:56:00,
2013-02-02 18:01:00,51.7,34.2,30.30,NNW,333,1.0,2.0,51,0.00,,CLR,0.00,VWS V14.01,2013-02-03 01:01:00,
2013-02-02 18:06:00,50.9,33.9,30.30,NNW,333,1.0,2.0,52,0.00,,CLR,0.00,VWS V14.01,2013-02-03 01:06:00,
2013-02-02 18:11:00,50.3,33.8,30.31,NNW,333,1.0,2.0,53,0.00,,CLR,0.00,VWS V14.01,2013-02-03 01:11:00,
2013-02-02 18:16:00,50.0,33.6,30.31,NNW,333,1.0,1.0,53,0.00,,CLR,0.00,VWS V14.01,2013-02-03 01:16:00,
2013-02-02 18:21:00,49.9,33.5,30.31,NNW,333,0.0,0.0,53,0.00,,CLR,0.00,VWS V14.01,2013-02-03 01:21:00,
2013-02-02 18:26:00,49.6,33.7,30.31,NNW,333,0.0,0.0,54,0.00,,CLR,0.00,VWS V14.01,2013-02-03 01:26:00,
2013-02-02 18:31:00,49.2,33.7,30.32,NNW,333,2.0,3.0,55,0.00,,CLR,0.00,VWS V14.01,2013-02-03 01:31:00,
2013-02-02 18:36:00,48.7,33.3,30.32,NNW,333,2.0,2.0,55,0.00,,CLR,0.00,VWS V14.01,2013-02-03 01:36:00,
2013-02-02 18:41:00,48.4,33.4,30.32,NNW,333,2.0,3.0,56,0.00,,CLR,0.00,VWS V14.01,2013-02-03 01:41:00,
2013-02-02 18:46:00,48.2,33.7,30.32,NNW,333,3.0,3.0,57,0.00,,CLR,0.00,VWS V14.01,2013-02-03 01:46:00,
2013-02-02 18:51:00,48.1,34.0,30.32,NNW,333,2.0,2.0,58,0.00,,CLR,0.00,VWS V14.01,2013-02-03 01:51:00,
2013-02-02 18:56:00,47.8,33.8,30.33,NNW,333,1.0,2.0,58,0.00,,CLR,0.00,VWS V14.01,2013-02-03 01:56:00,
2013-02-02 19:01:00,47.6,33.6,30.33,NNW,333,0.0,2.0,58,0.00,,CLR,0.00,VWS V14.01,2013-02-03 02:01:00,
2013-02-02 19:06:00,47.2,33.2,30.32,NNW,333,0.0,0.0,58,0.00,,CLR,0.00,VWS V14.01,2013-02-03 02:06:00,
2013-02-02 19:11:00,47.0,32.6,30.33,NNW,333,0.0,0.0,57,0.00,,CLR,0.00,VWS V14.01,2013-02-03 02:11:00,
2013-02-02 19:16:00,47.0,33.0,30.33,NNW,333,0.0,0.0,58,0.00,,CLR,0.00,VWS V14.01,2013-02-03 02:16:00,
2013-02-02 19:21:00,46.8,34.1,30.33,NNW,333,0.0,0.0,61,0.00,,CLR,0.00,VWS V14.01,2013-02-03 02:21:00,
2013-02-02 19:26:00,46.5,33.4,30.33,NNW,333,0.0,0.0,60,0.00,,CLR,0.00,VWS V14.01,2013-02-03 02:26:00,
2013-02-02 19:31:00,46.4,33.3,30.33,NNW,333,0.0,0.0,60,0.00,,CLR,0.00,VWS V14.01,2013-02-03 02:31:00,
2013-02-02 19:36:00,46.2,33.5,30.33,NNW,333,0.0,0.0,61,0.00,,CLR,0.00,VWS V14.01,2013-02-03 02:36:00,
2013-02-02 19:41:00,45.8,33.5,30.33,NNW,333,0.0,0.0,62,0.00,,CLR,0.00,VWS V14.01,2013-02-03 02:41:00,
2013-02-02 19:46:00,45.4,34.3,30.34,NNW,333,0.0,0.0,65,0.00,,CLR,0.00,VWS V14.01,2013-02-03 02:46:00,
2013-02-02 19:51:00,45.1,34.4,30.34,NNW,333,2.0,3.0,66,0.00,,CLR,0.00,VWS V14.01,2013-02-03 02:51:00,
2013-02-02 19:56:00,44.5,34.2,30.34,NNW,333,2.0,3.0,67,0.00,,CLR,0.00,VWS V14.01,2013-02-03 02:56:00,
2013-02-02 20:01:00,44.1,33.9,30.34,NNW,333,2.0,2.0,67,0.00,,CLR,0.00,VWS V14.01,2013-02-03 03:01:00,
2013-02-02 20:06:00,43.8,33.6,30.34,NNW,333,3.0,3.0,67,0.00,,CLR,0.00,VWS V14.01,2013-02-03 03:06:00,
2013-02-02 20:11:00,43.6,33.4,30.34,NNW,333,2.0,2.0,67,0.00,,CLR,0.00,VWS V14.01,2013-02-03 03:11:00,
2013-02-02 20:16:00,43.4,33.2,30.34,NNW,333,1.0,2.0,67,0.00,,CLR,0.00,VWS V14.01,2013-02-03 03:16:00,
2013-02-02 20:21:00,43.4,33.6,30.34,NNW,333,2.0,3.0,68,0.00,,CLR,0.00,VWS V14.01,2013-02-03 03:21:00,
2013-02-02 20:26:00,43.3,33.8,30.34,NNW,333,1.0,2.0,69,0.00,,CLR,0.00,VWS V14.01,2013-02-03 03:26:00,
2013-02-02 20:31:00,43.1,34.0,30.34,NNW,333,1.0,2.0,70,0.00,,CLR,0.00,VWS V14.01,2013-02-03 03:31:00,
2013-02-02 20:36:00,43.0,33.9,30.35,NNW,333,1.0,2.0,70,0.00,,CLR,0.00,VWS V14.01,2013-02-03 03:36:00,
2013-02-02 20:41:00,42.8,33.7,30.35,NNW,333,2.0,2.0,70,0.00,,CLR,0.00,VWS V14.01,2013-02-03 03:41:00,
2013-02-02 20:46:00,42.7,33.6,30.34,NNW,333,1.0,2.0,70,0.00,,CLR,0.00,VWS V14.01,2013-02-03 03:46:00,
2013-02-02 20:51:00,42.9,33.4,30.35,NNW,333,2.0,3.0,69,0.00,,CLR,0.00,VWS V14.01,2013-02-03 03:51:00,
2013-02-02 20:56:00,43.0,33.9,30.35,NNW,333,1.0,2.0,70,0.00,,CLR,0.00,VWS V14.01,2013-02-03 03:56:00,
2013-02-02 21:01:00,43.0,33.5,30.35,NNW,333,0.0,1.0,69,0.00,,CLR,0.00,VWS V14.01,2013-02-03 04:01:00,
2013-02-02 21:06:00,43.2,33.7,30.35,NNW,333,2.0,3.0,69,0.00,,CLR,0.00,VWS V14.01,2013-02-03 04:06:00,
2013-02-02 21:11:00,43.4,33.6,30.35,NNW,333,2.0,2.0,68,0.00,,CLR,0.00,VWS V14.01,2013-02-03 04:11:00,
2013-02-02 21:16:00,43.5,33.7,30.35,NNW,333,2.0,2.0,68,0.00,,CLR,0.00,VWS V14.01,2013-02-03 04:16:00,
2013-02-02 21:21:00,43.4,33.6,30.35,NNW,333,1.0,2.0,68,0.00,,CLR,0.00,VWS V14.01,2013-02-03 04:21:00,
2013-02-02 21:26:00,43.4,33.6,30.35,NNW,333,1.0,2.0,68,0.00,,CLR,0.00,VWS V14.01,2013-02-03 04:26:00,
2013-02-02 21:31:00,43.5,33.7,30.35,NNW,333,1.0,3.0,68,0.00,,CLR,0.00,VWS V14.01,2013-02-03 04:31:00,
2013-02-02 21:36:00,43.5,33.7,30.35,NNW,333,1.0,1.0,68,0.00,,CLR,0.00,VWS V14.01,2013-02-03 04:36:00,
2013-02-02 21:41:00,43.2,33.4,30.36,NNW,333,1.0,2.0,68,0.00,,CLR,0.00,VWS V14.01,2013-02-03 04:41:00,
2013-02-02 21:46:00,42.8,33.3,30.36,NNW,333,1.0,2.0,69,0.00,,CLR,0.00,VWS V14.01,2013-02-03 04:46:00,
2013-02-02 21:51:00,42.6,33.5,30.36,NNW,333,1.0,2.0,70,0.00,,CLR,0.00,VWS V14.01,2013-02-03 04:51:00,
2013-02-02 21:56:00,42.5,33.4,30.36,NNW,333,1.0,2.0,70,0.00,,CLR,0.00,VWS V14.01,2013-02-03 04:56:00,
2013-02-02 22:00:00,42.4,33.3,30.36,NNW,333,2.0,2.0,70,0.00,,CLR,0.00,VWS V14.01,2013-02-03 05:00:00,
2013-02-02 22:03:00,42.3,33.2,30.36,NNW,333,2.0,2.0,70,0.00,,CLR,0.00,VWS V14.01,2013-02-03 05:03:00,
2013-02-02 22:04:00,42.3,33.2,30.36,NNW,333,2.0,3.0,70,0.00,,CLR,0.00,VWS V14.01,2013-02-03 05:04:00,
2013-02-02 22:08:00,42.1,33.4,30.36,NNW,333,1.0,2.0,71,0.00,,CLR,0.00,VWS V14.01,2013-02-03 05:08:00,
2013-02-02 22:13:00,41.9,33.5,30.36,NNW,333,1.0,2.0,72,0.00,,CLR,0.00,VWS V14.01,2013-02-03 05:13:00,
2013-02-02 22:18:00,41.7,33.3,30.36,NNW,333,2.0,2.0,72,0.00,,CLR,0.00,VWS V14.01,2013-02-03 05:18:00,
2013-02-02 22:23:00,41.4,33.1,30.37,NNW,333,0.0,1.0,72,0.00,,CLR,0.00,VWS V14.01,2013-02-03 05:23:00,
2013-02-02 22:28:00,41.4,33.4,30.37,NNW,333,0.0,0.0,73,0.00,,CLR,0.00,VWS V14.01,2013-02-03 05:28:00,
2013-02-02 22:33:00,41.4,33.4,30.37,NNW,333,0.0,0.0,73,0.00,,CLR,0.00,VWS V14.01,2013-02-03 05:33:00,
2013-02-02 22:38:00,41.4,33.4,30.37,NNW,333,0.0,0.0,73,0.00,,CLR,0.00,VWS V14.01,2013-02-03 05:38:00,
2013-02-02 22:43:00,41.4,33.8,30.37,NNW,333,0.0,0.0,74,0.00,,CLR,0.00,VWS V14.01,2013-02-03 05:43:00,
2013-02-02 22:48:00,41.1,33.5,30.36,NNW,333,0.0,0.0,74,0.00,,CLR,0.00,VWS V14.01,2013-02-03 05:48:00,
2013-02-02 22:53:00,40.9,33.6,30.37,NNW,333,0.0,0.0,75,0.00,,CLR,0.00,VWS V14.01,2013-02-03 05:53:00,
2013-02-02 22:58:00,40.6,33.3,30.36,NNW,333,0.0,0.0,75,0.00,,CLR,0.00,VWS V14.01,2013-02-03 05:58:00,
2013-02-02 23:04:00,40.3,33.3,30.37,NNW,333,0.0,0.0,76,0.00,,CLR,0.00,VWS V14.01,2013-02-03 06:04:00,
2013-02-02 23:09:00,40.1,33.2,30.37,NNW,333,0.0,0.0,76,0.00,,CLR,0.00,VWS V14.01,2013-02-03 06:09:00,
2013-02-02 23:14:00,40.1,33.2,30.36,NNW,333,0.0,0.0,76,0.00,,CLR,0.00,VWS V14.01,2013-02-03 06:14:00,
2013-02-02 23:19:00,40.0,33.1,30.36,NNW,333,0.0,0.0,76,0.00,,CLR,0.00,VWS V14.01,2013-02-03 06:19:00,
2013-02-02 23:24:00,39.8,32.9,30.36,NNW,333,0.0,0.0,76,0.00,,CLR,0.00,VWS V14.01,2013-02-03 06:24:00,
2013-02-02 23:29:00,39.8,33.2,30.36,NNW,333,0.0,0.0,77,0.00,,CLR,0.00,VWS V14.01,2013-02-03 06:29:00,
2013-02-02 23:35:00,39.8,33.5,30.36,NNW,333,0.0,0.0,78,0.00,,CLR,0.00,VWS V14.01,2013-02-03 06:35:00,
2013-02-02 23:40:00,39.6,33.3,30.36,NNW,333,0.0,0.0,78,0.00,,CLR,0.00,VWS V14.01,2013-02-03 06:40:00,
2013-02-02 23:45:00,39.5,32.9,30.36,NNW,333,2.0,3.0,77,0.00,,CLR,0.00,VWS V14.01,2013-02-03 06:45:00,
2013-02-02 23:50:00,39.3,32.7,30.36,NNW,333,1.0,3.0,77,0.00,,CLR,0.00,VWS V14.01,2013-02-03 06:50:00,
2013-02-02 23:56:00,39.1,32.5,30.36,NNW,333,1.0,3.0,77,0.00,,CLR,0.00,VWS V14.01,2013-02-03 06:56:00,